TimeEET,TemperatureF,Dew PointF,Humidity,Sea Level PressureIn,VisibilityMPH,Wind Direction,Wind SpeedMPH,Gust SpeedMPH,PrecipitationIn,Events,Conditions,WindDirDegrees,DateUTC
12:00 AM,75.2,68.0,78,29.89,6.2,NW,10.4,-,N/A,,Scattered Clouds,310,2013-07-08 22:00:00
1:00 AM,75.2,69.8,83,29.89,6.2,WNW,11.5,-,N/A,,Scattered Clouds,300,2013-07-08 23:00:00
2:00 AM,75,70,79,29.90,6,WNW,9.2,,,,Partly Cloudy,300,2013-07-09 00:00:00
2:00 AM,75.2,68.0,78,29.89,6.2,WNW,9.2,-,N/A,,Scattered Clouds,300,2013-07-09 00:00:00
3:00 AM,75.2,68.0,78,29.89,6.2,WNW,10.4,-,N/A,,Partly Cloudy,300,2013-07-09 01:00:00
4:00 AM,73.4,68.0,83,29.89,6.2,NW,9.2,-,N/A,,Partly Cloudy,310,2013-07-09 02:00:00
5:00 AM,75.2,69.8,83,29.86,6.2,NW,6.9,-,N/A,,Scattered Clouds,310,2013-07-09 03:00:00
6:00 AM,77.0,69.8,78,29.86,6.2,WNW,6.9,-,N/A,,Partly Cloudy,300,2013-07-09 04:00:00
7:00 AM,78.8,69.8,74,29.86,6.2,NW,10.4,-,N/A,,Scattered Clouds,320,2013-07-09 05:00:00
8:00 AM,80,71,67,29.88,6,WNW,10.4,,,,Partly Cloudy,300,2013-07-09 06:00:00
8:00 AM,80.6,71.6,74,29.86,6.2,WNW,10.4,-,N/A,,Scattered Clouds,300,2013-07-09 06:00:00
9:00 AM,82.4,71.6,70,29.86,6.2,NNW,11.5,-,N/A,,Scattered Clouds,330,2013-07-09 07:00:00
10:00 AM,82.4,71.6,70,29.86,6.2,North,13.8,-,N/A,,Scattered Clouds,350,2013-07-09 08:00:00
11:00 AM,84.2,69.8,62,29.86,6.2,WNW,11.5,-,N/A,,Scattered Clouds,290,2013-07-09 09:00:00
12:00 PM,84.2,71.6,66,29.86,6.2,NW,10.4,-,N/A,,Scattered Clouds,310,2013-07-09 10:00:00
1:00 PM,84.2,69.8,62,29.86,6.2,WNW,13.8,-,N/A,,Scattered Clouds,290,2013-07-09 11:00:00
2:00 PM,83,71,59,29.85,6,NW,15.0,,,,Partly Cloudy,310,2013-07-09 12:00:00
2:00 PM,84.2,71.6,66,29.83,6.2,NW,15.0,-,N/A,,Scattered Clouds,310,2013-07-09 12:00:00
3:00 PM,84.2,71.6,66,29.83,6.2,NW,15.0,-,N/A,,Scattered Clouds,320,2013-07-09 13:00:00
4:00 PM,84.2,71.6,66,29.80,6.2,WNW,13.8,-,N/A,,Scattered Clouds,290,2013-07-09 14:00:00
5:00 PM,82.4,71.6,70,29.80,6.2,NW,15.0,-,N/A,,Partly Cloudy,320,2013-07-09 15:00:00
6:00 PM,80.6,69.8,70,29.80,-9999.0,North,13.8,-,N/A,,Clear,350,2013-07-09 16:00:00
7:00 PM,80.6,69.8,70,29.80,-9999.0,NW,10.4,-,N/A,,Clear,310,2013-07-09 17:00:00
8:00 PM,78,70,71,29.81,6,NW,9.2,,,,,310,2013-07-09 18:00:00
8:00 PM,78.8,69.8,74,29.80,-9999.0,NW,9.2,-,N/A,,Clear,310,2013-07-09 18:00:00
9:00 PM,77.0,69.8,78,29.80,-9999.0,WNW,6.9,-,N/A,,Clear,290,2013-07-09 19:00:00
10:00 PM,77.0,71.6,83,29.80,6.2,WNW,9.2,-,N/A,,Partly Cloudy,290,2013-07-09 20:00:00
11:00 PM,77.0,71.6,83,29.80,6.2,NW,9.2,-,N/A,,Partly Cloudy,310,2013-07-09 21:00:00